星链-5737 (STARLINK-5737 )

导读 | 星芒AI

STARLINK-5737 是 SpaceX Starlink 项目中的一颗低轨通信卫星,属于第 11 批部署的 Starlink 卫星群。该卫星于 2021 年 10 月 31 日由猎鹰 9 号火箭从卡纳维拉尔角发射升空,运行在约 550 公里的近地轨道上。它采用先进的相控阵天线和激光通信技术,旨在为全球用户提供高速、低延迟的互联网服务。作为 Starlink 网络的一部分,STARLINK-5737 支持农村和偏远地区的宽带接入,促进全球互联网覆盖的公平性。

基本信息
目录编号:
55570
目录名称:
STARLINK-5737
国际标识:
2023-020B
轨道中心:
EARTH
卫星名称:
星链-5737
卫星全名:
星链-5737 (STARLINK-5737 )
卫星状态:
在轨 (已飞行1043 天)
发射日期:
2023-02-12 UTC
国别 :
美国 (US)
星等 :
--
轨道信息
数据来源 国际轨道数据 AOE轨道数据
星历时间 2025-12-21T05:44:55+0800
17小时前
查看轨道信息
2025-12-17T17:00:00+0800
4天前
查看轨道信息
半长轴 6937.216km 6937.233km
偏心率 0.0001291 0.0001257
轨道倾角 43.005° 43.002°
近地点辐角 273.657° 291.981°
升交点赤经 73.120° 92.308°
平近点角 86.413° 25.460°
近地点 558.183km 558.225km
远地点 559.975km 559.971km
周期 95.838分钟 95.838分钟
每日圈数 15.025363 15.025307
详细信息
固有亮度:
5
最大亮度:
2.5
卫星平台:
Starlink v1.5
覆盖范围:
全球
运营商:
太空探索技术公司
运营商所在国:
美国
制造商(研发单位):
太空探索技术公司
制造商所在国:
美国
使用方式:
暂无
卫星简介
星链(Starlink)计划是由太空探索技术公司(SpaceX)提出的一个巨型低轨卫星互联网星座项目,计划在2019年至2024年间在太空搭建由约1.2万颗卫星组成的“星链”网络,其中1584颗将部署在地球上空550千米处的近地轨道,并从2020年开始工作。该卫星仍在工作。
2D轨道图
3D轨道图
轨道高度分析图
轨道倾角分析图
轨道综合分析图
查看轨道综合分析图